DateTimeUTC,F1_A11,F1_S11,BsB_S11,BsG_S11,BsR_S11,BbsB_S11,BbsG_S11,BbsR_S11,BaB_A11,BaG_A11,BaR_A11,Tu_S11,T_S11,Uu_S11,U_S11,P_S11,T1_A11
2021-02-15T16:00:00Z,00000200,21000000,,,,,,,0000.06,0000.23,0000.22,17.4,23.7,00.6,00.4,0637.0,31.0
2021-02-15T16:01:00Z,00000200,21000000,,,,,,,-000.05,0000.00,0000.06,17.4,23.7,00.6,00.4,0636.9,31.0
2021-02-15T16:02:00Z,00000200,21000000,,,,,,,0000.03,-000.09,-000.00,17.3,23.7,00.6,00.4,0636.9,31.0
2021-02-15T16:03:00Z,00000200,61000000,,,,,,,0000.29,0000.15,0000.07,17.3,23.7,00.6,00.4,0636.9,31.0
2021-02-15T16:04:00Z,00000200,41000000,-000.37,0000.31,0000.05,-000.09,0000.21,0000.25,0000.12,-000.26,-000.10,17.3,23.5,00.7,00.5,0637.7,31.0
2021-02-15T16:05:00Z,00000200,01000000,0000.29,0000.54,0000.07,-000.43,0000.02,0000.23,0000.42,0000.62,0000.32,17.4,23.5,00.8,00.5,0637.8,31.0
2021-02-15T16:06:00Z,00000200,01000000,0000.24,0000.37,0000.52,0000.14,0000.25,-000.10,0000.00,0000.25,-000.01,17.4,23.5,00.7,00.5,0637.6,31.0
2021-02-15T16:07:00Z,00000200,01000000,0000.10,0000.42,0000.15,0000.05,0000.27,-000.09,0000.06,-000.15,0000.31,17.5,23.5,00.7,00.5,0637.7,31.0
2021-02-15T16:08:00Z,00000200,01000000,-000.29,0000.43,0000.39,0000.18,0000.21,0000.19,0000.29,0000.16,-000.20,17.6,23.5,00.7,00.5,0637.7,31.1
2021-02-15T16:09:00Z,00000200,01000000,0001.36,0000.66,0000.16,0000.89,0000.30,0000.01,-000.00,0000.40,0000.23,17.6,23.6,00.7,00.5,0637.5,31.0
2021-02-15T16:10:00Z,00000200,01000000,0000.20,0000.28,0000.19,0000.45,0000.01,0000.17,0000.19,-000.26,0000.21,17.6,23.6,00.7,00.5,0637.5,31.0
2021-02-15T16:11:00Z,00000200,01000000,-000.05,0000.54,0000.07,-000.40,0000.01,0000.21,-000.06,0000.04,-000.20,17.6,23.6,00.7,00.5,0637.6,31.0
2021-02-15T16:12:00Z,00000200,01000000,0000.06,0000.31,0000.26,-000.02,0000.18,0000.06,0000.16,0000.45,-000.18,17.6,23.5,00.7,00.5,0637.6,31.0
2021-02-15T16:13:00Z,00000200,01000000,0000.23,-000.01,0000.03,-000.06,0000.55,-000.04,0000.14,-000.41,0000.13,17.5,23.5,00.7,00.5,0637.6,31.0
2021-02-15T16:14:00Z,00000200,01000000,-000.03,0000.46,0000.25,-000.09,0000.25,0000.12,0000.16,0000.28,0000.38,17.5,23.5,00.7,00.5,0637.6,31.0
2021-02-15T16:15:00Z,00000200,01000000,0000.23,0000.39,-000.02,0000.55,0000.09,-000.08,-000.07,0000.11,-000.13,17.5,23.5,00.7,00.5,0637.6,31.0
2021-02-15T16:16:00Z,00000200,01000000,0000.16,0000.20,0000.08,-000.67,0000.06,-000.08,0000.18,-000.33,0000.05,17.4,23.5,00.8,00.6,0637.5,31.0
2021-02-15T16:17:00Z,00000200,01000000,0000.71,0000.50,0000.43,-000.30,0000.24,0000.38,-000.26,0000.60,0000.16,17.4,23.4,00.8,00.6,0637.7,31.0
2021-02-15T16:18:00Z,00000200,01000000,0000.26,0000.20,0000.31,-000.17,-000.21,0000.13,0000.37,-000.14,0000.18,17.4,23.4,00.7,00.5,0637.3,31.0
2021-02-15T16:19:00Z,00000200,01000000,0000.20,0000.30,0000.07,0000.39,0000.03,0000.16,0000.43,0000.34,-000.05,17.3,23.4,00.8,00.5,0637.5,31.0
2021-02-15T16:20:00Z,00000200,01000000,-000.02,0000.12,0000.44,0000.01,0000.00,0000.13,0000.12,0000.28,0000.49,17.4,23.4,00.7,00.5,0637.6,31.0
2021-02-15T16:21:00Z,00000200,01000000,0000.03,0000.69,0000.57,0000.30,0000.01,0000.05,0000.27,0000.10,0000.09,17.4,23.4,00.8,00.5,0637.4,31.0
2021-02-15T16:22:00Z,00000200,01000000,-000.53,0000.32,0000.18,-000.09,0000.26,0000.13,0000.08,-000.08,-000.00,17.5,23.5,00.7,00.5,0637.4,31.0
2021-02-15T16:23:00Z,00000200,01000000,0000.91,0000.54,0000.21,-000.03,-000.10,0000.05,0000.00,0000.70,0000.20,17.6,23.5,00.7,00.5,0637.4,31.0
2021-02-15T16:24:00Z,00000200,01000000,0000.62,0000.05,0000.50,-000.12,0000.04,0000.16,0000.34,-000.05,0000.33,17.7,23.5,00.7,00.5,0637.5,31.1
2021-02-15T16:25:00Z,00000200,01000000,0000.23,0000.41,0000.03,0000.21,0000.20,0000.09,-000.09,0000.16,0000.20,17.7,23.6,00.8,00.6,0637.4,31.1
2021-02-15T16:26:00Z,00000200,01000000,0000.29,0000.14,0000.32,0000.14,0000.54,0000.07,0000.09,0000.02,-000.20,17.8,23.6,00.7,00.5,0637.2,31.1
2021-02-15T16:27:00Z,00000200,01000000,-000.34,0000.23,0000.38,-000.17,0000.24,0000.26,0000.12,-000.12,-000.18,17.8,23.6,00.7,00.5,0637.3,31.0
2021-02-15T16:28:00Z,00000200,01000000,-000.06,0000.33,0000.33,0000.22,0000.14,0000.19,0000.10,0000.17,-000.12,17.8,23.6,00.6,00.4,0637.4,31.0
2021-02-15T16:29:00Z,00000200,01000000,0000.32,0000.27,0000.14,0000.20,0000.34,0000.05,-000.06,-000.03,0000.18,17.7,23.6,00.7,00.5,0637.4,31.0
2021-02-15T16:30:00Z,00000200,01000000,-000.18,0000.25,0000.01,0000.59,0000.28,-000.04,0000.22,0000.14,0000.03,17.7,23.6,00.6,00.4,0637.3,31.0
2021-02-15T16:31:00Z,00000200,01000000,0000.68,0000.00,0000.26,-000.12,0000.38,-000.14,-000.04,-000.01,0000.23,17.6,23.6,00.6,00.4,0637.0,31.0
2021-02-15T16:32:00Z,00000200,01000000,0000.04,0000.36,0000.34,-000.20,0000.33,-000.06,0000.18,0000.19,-000.11,17.6,23.5,00.8,00.5,0637.3,31.0
2021-02-15T16:33:00Z,00000200,01000000,-000.10,0000.38,0000.69,0000.18,0000.31,0000.30,-000.05,-000.31,-000.15,17.6,23.5,00.7,00.5,0637.1,31.0
2021-02-15T16:34:00Z,00000200,01000000,0000.34,0000.17,0000.11,0000.29,0000.03,0000.17,0000.17,0000.52,0000.25,17.6,23.5,00.7,00.5,0637.2,31.0
2021-02-15T16:35:00Z,00000200,01000000,0000.05,0000.19,-000.16,0000.16,0000.13,-000.07,0000.58,0000.11,0000.47,17.6,23.5,00.7,00.5,0637.2,31.0
2021-02-15T16:36:00Z,00000200,01000000,0000.07,-000.01,-000.18,-000.14,0000.28,0000.29,-000.05,0000.15,0000.08,17.6,23.5,00.7,00.5,0637.3,31.0
2021-02-15T16:37:00Z,00000200,01000000,0000.24,0000.23,-000.06,0000.09,0000.04,-000.16,0000.33,0000.21,0000.18,17.7,23.6,00.7,00.5,0637.2,31.0
2021-02-15T16:38:00Z,00000200,01000000,-000.80,0000.50,0000.31,-000.26,0000.17,-000.24,0000.19,0000.47,-000.11,17.7,23.6,00.6,00.4,0637.3,31.0
2021-02-15T16:39:00Z,00000200,01000000,0000.36,0000.29,0000.13,0000.34,-000.11,-000.06,-000.01,-000.05,0000.59,17.8,23.6,00.6,00.4,0637.1,31.1
2021-02-15T16:40:00Z,00000200,01000000,0000.27,0000.14,0000.12,-000.20,0000.08,0000.08,0000.17,-000.30,-000.13,17.9,23.7,00.7,00.5,0637.2,31.1
2021-02-15T16:41:00Z,00000200,01000000,0000.96,0000.33,0000.15,0000.09,0000.40,0000.25,-000.24,0000.45,-000.17,17.9,23.7,00.8,00.5,0637.2,31.1
2021-02-15T16:42:00Z,00000200,01000000,0000.40,0000.28,0000.24,-000.07,0000.34,-000.14,0000.13,-000.27,-000.03,17.9,23.7,00.7,00.5,0637.1,31.1
2021-02-15T16:43:00Z,00000200,01000000,-000.16,0000.40,0000.24,-000.12,0000.26,-000.01,0000.08,0000.33,-000.04,17.9,23.7,00.7,00.5,0637.2,31.0
2021-02-15T16:44:00Z,00000200,01000000,0000.23,0000.52,-000.23,-000.02,-000.04,-000.22,0000.11,0000.09,0000.36,17.8,23.7,00.6,00.4,0637.2,31.0
2021-02-15T16:45:00Z,00000200,01000000,0000.33,-000.12,-000.10,-000.02,0000.36,0000.00,0000.08,-000.05,-000.02,17.8,23.7,00.6,00.4,0637.2,31.0
2021-02-15T16:46:00Z,00000200,01000000,0000.04,0000.52,-000.05,0000.37,0000.12,0000.03,0000.14,-000.01,-000.06,17.8,23.6,00.7,00.5,0636.9,31.0
2021-02-15T16:47:00Z,00000200,01000000,0000.42,0000.33,0000.18,0000.66,0000.23,0000.09,-000.08,0000.08,0000.05,17.7,23.6,00.7,00.5,0637.0,31.0
2021-02-15T16:48:00Z,00000200,01000000,0000.92,0000.08,0000.17,0000.18,0000.01,0000.14,0000.23,0000.33,0000.03,17.7,23.6,00.6,00.4,0637.0,31.0
2021-02-15T16:49:00Z,00000200,01000000,0000.50,0000.41,0000.28,-000.55,0000.18,0000.27,0000.27,0000.38,0000.30,17.6,23.6,00.7,00.5,0636.9,31.0
2021-02-15T16:50:00Z,00000200,01000000,0000.43,0000.31,0000.31,-000.17,0000.33,0000.14,0000.13,-000.31,0000.26,17.7,23.6,00.5,00.4,0636.9,31.0
2021-02-15T16:51:00Z,00000200,01000000,0000.70,0000.17,-000.01,-000.04,0000.39,-000.15,0000.34,0000.15,0000.00,17.7,23.6,00.7,00.5,0637.0,31.0
2021-02-15T16:52:00Z,00000200,01000000,0000.57,0000.22,0000.10,-000.16,0000.29,0000.07,-000.08,0000.27,0000.22,17.8,23.6,00.7,00.5,0636.8,31.1
2021-02-15T16:53:00Z,00000200,01000000,-000.31,0000.59,0000.15,0000.04,0000.22,-000.16,0000.22,0000.03,-000.03,17.9,23.7,00.6,00.4,0636.7,31.1
2021-02-15T16:54:00Z,00000200,01000000,-000.26,0000.26,0000.25,-000.07,0000.15,-000.05,0000.22,0000.02,0000.00,17.9,23.7,00.6,00.4,0636.8,31.0
2021-02-15T16:55:00Z,00000200,01000000,-000.40,0000.42,-000.00,0000.13,0000.09,0000.33,-000.12,0000.06,0000.03,17.9,23.7,00.6,00.4,0636.8,31.0
2021-02-15T16:56:00Z,00000200,01000000,0000.70,0000.16,0000.38,-000.27,0000.09,0000.03,0000.18,0000.27,0000.28,17.8,23.7,00.6,00.4,0636.7,31.0
2021-02-15T16:57:00Z,00000200,41000000,,,,,,,-000.06,0000.09,-000.12,17.9,23.7,01.1,00.8,0636.7,31.0
2021-02-15T16:58:00Z,00000200,61000000,,,,,,,-000.35,-000.48,-000.50,17.6,23.7,00.6,00.4,0635.9,31.0
2021-02-15T16:59:00Z,00000200,21000000,,,,,,,0000.37,-000.04,-000.00,17.6,23.8,00.3,00.2,0635.9,31.0
